TimeEDT,TemperatureF,Dew PointF,Humidity,Sea Level PressureIn,VisibilityMPH,Wind Direction,Wind SpeedMPH,Gust SpeedMPH,PrecipitationIn,Events,Conditions,WindDirDegrees,DateUTC
12:32 AM,64.0,61.0,90,29.93,10.0,Calm,Calm,-,N/A,,Overcast,0,2013-09-26 04:32:00
12:53 AM,64.0,60.1,87,29.87,10.0,Calm,Calm,-,N/A,,Overcast,0,2013-09-26 04:53:00
1:21 AM,64.0,60.1,87,29.93,10.0,Calm,Calm,-,N/A,,Overcast,0,2013-09-26 05:21:00
1:53 AM,63.0,60.1,90,29.87,9.0,Calm,Calm,-,N/A,,Overcast,0,2013-09-26 05:53:00
2:09 AM,63.0,60.1,90,29.93,9.0,Calm,Calm,-,N/A,,Overcast,0,2013-09-26 06:09:00
2:53 AM,62.1,59.0,90,29.87,3.0,Calm,Calm,-,0.01,Rain,Light Rain,0,2013-09-26 06:53:00
3:01 AM,62.1,59.0,90,29.93,4.0,Calm,Calm,-,0.01,Rain,Light Rain,0,2013-09-26 07:01:00
3:40 AM,62.1,59.0,90,29.93,2.5,Calm,Calm,-,0.03,Rain,Light Rain,0,2013-09-26 07:40:00
3:49 AM,62.6,59.0,88,29.93,3.0,Calm,Calm,-,0.03,Rain,Light Rain,0,2013-09-26 07:49:00
3:53 AM,62.1,59.0,90,29.88,3.0,Calm,Calm,-,0.03,Rain,Light Rain,0,2013-09-26 07:53:00
4:53 AM,61.0,59.0,93,29.88,6.0,Calm,Calm,-,0.00,Rain,Light Rain,0,2013-09-26 08:53:00
5:53 AM,60.1,57.9,93,29.89,7.0,Calm,Calm,-,0.00,,Overcast,0,2013-09-26 09:53:00
6:53 AM,60.1,57.9,93,29.90,7.0,Calm,Calm,-,N/A,,Overcast,0,2013-09-26 10:53:00
7:34 AM,61.0,57.9,90,29.97,10.0,Calm,Calm,-,N/A,,Overcast,0,2013-09-26 11:34:00
7:53 AM,61.0,57.9,90,29.92,10.0,Calm,Calm,-,N/A,,Overcast,0,2013-09-26 11:53:00
8:53 AM,62.1,57.0,84,29.94,10.0,East,5.8,-,N/A,,Scattered Clouds,80,2013-09-26 12:53:00
9:53 AM,64.9,57.0,75,29.96,10.0,Variable,3.5,-,N/A,,Partly Cloudy,0,2013-09-26 13:53:00
10:53 AM,68.0,55.9,65,29.96,10.0,Variable,3.5,-,N/A,,Partly Cloudy,0,2013-09-26 14:53:00
11:53 AM,70.0,57.0,63,29.96,10.0,NNW,4.6,-,N/A,,Scattered Clouds,330,2013-09-26 15:53:00
12:53 PM,71.1,55.9,59,29.96,10.0,Variable,3.5,-,N/A,,Scattered Clouds,0,2013-09-26 16:53:00
1:53 PM,72.0,55.0,55,29.94,10.0,Variable,3.5,-,N/A,,Scattered Clouds,0,2013-09-26 17:53:00
2:53 PM,73.9,55.0,52,29.94,10.0,Variable,6.9,-,N/A,,Scattered Clouds,0,2013-09-26 18:53:00
3:53 PM,75.9,53.1,45,29.93,10.0,NNW,3.5,-,N/A,,Scattered Clouds,330,2013-09-26 19:53:00
4:53 PM,75.0,52.0,44,29.93,10.0,NNW,3.5,-,N/A,,Scattered Clouds,340,2013-09-26 20:53:00
5:53 PM,75.9,48.9,38,29.94,10.0,NNE,3.5,-,N/A,,Scattered Clouds,30,2013-09-26 21:53:00
6:53 PM,71.1,54.0,55,29.96,10.0,North,4.6,-,N/A,,Scattered Clouds,350,2013-09-26 22:53:00
7:53 PM,64.9,57.0,75,29.97,10.0,NE,3.5,-,N/A,,Partly Cloudy,40,2013-09-26 23:53:00
8:53 PM,61.0,55.9,83,29.99,10.0,Calm,Calm,-,N/A,,Clear,0,2013-09-27 00:53:00
9:53 PM,59.0,55.0,87,30.02,10.0,Calm,Calm,-,N/A,,Clear,0,2013-09-27 01:53:00
10:53 PM,57.0,54.0,89,30.02,10.0,Calm,Calm,-,N/A,,Clear,0,2013-09-27 02:53:00
11:53 PM,55.0,53.1,93,30.03,4.0,Calm,Calm,-,N/A,,Clear,0,2013-09-27 03:53:00